Wind_Speed
21 21 21 22 22 21 21 20 19 19 19 18 18 17 14 12 11 10 9 7 6 6 8 9 10 11 12 12 11 10 9 9 10 10 10 10 9 6 5 5 6 6
21 21 21 21 21 21 21 20 19 18 18 19 18 17 15 13 12 12 10 8 7 6 6 8 9 11 13 13 12 11 10 9 10 10 11 11 10 8 7 6 7 7
22 22 22 22 22 22 22 20 19 18 18 18 18 18 16 14 13 13 12 10 8 7 7 7 8 10 12 13 13 12 11 10 10 11 11 12 11 10 8 8 8 8
21 21 21 22 22 22 22 20 19 19 18 18 18 17 15 14 14 15 14 13 11 10 9 9 9 10 11 13 14 14 13 12 11 11 12 12 13 12 10 9 9 10
21 21 20 21 22 22 21 20 20 20 19 18 18 16 15 15 15 15 16 15 14 13 12 11 11 11 12 13 14 14 14 14 13 13 12 13 13 13 12 10 10 11
21 20 20 20 21 21 21 21 21 21 20 19 18 17 17 16 16 16 17 18 17 16 15 14 13 13 14 14 14 14 15 15 15 15 14 14 14 14 13 12 10 11
20 21 21 21 21 21 21 21 22 21 21 21 20 19 19 19 18 18 19 20 20 19 18 16 15 15 16 16 16 15 15 15 16 16 16 15 15 15 14 13 12 11
22 23 23 22 22 22 22 22 22 22 22 21 21 21 21 21 21 21 21 21 22 22 20 19 18 17 17 17 17 17 16 16 16 18 18 17 16 16 15 15 14 12
24 24 24 24 24 23 23 24 24 23 23 22 22 22 22 22 23 23 23 23 23 23 22 21 20 19 19 19 19 19 19 17 17 18 19 18 18 17 17 16 15 14
24 24 24 25 25 25 25 25 25 25 24 24 24 24 24 23 23 24 24 24 24 23 23 23 22 21 20 20 20 21 21 20 18 18 19 19 19 19 18 17 17 16
24 24 24 24 25 25 26 26 26 25 24 24 25 25 25 25 25 25 24 24 25 24 24 24 23 22 22 22 22 23 23 22 21 19 20 20 20 20 20 19 18 18
24 24 24 24 25 25 25 25 24 23 23 24 25 25 26 25 25 26 26 25 26 26 25 25 24 23 23 23 24 24 24 24 23 21 20 20 21 21 21 21 21 20
23 24 24 24 24 24 24 24 23 22 22 22 23 23 23 23 23 25 26 26 26 26 26 25 25 24 23 24 25 25 25 25 25 23 21 21 21 22 22 23 22 22
22 24 25 25 24 24 23 22 21 21 21 20 20 20 19 20 20 22 24 25 26 26 26 26 25 25 25 25 25 25 25 26 25 24 22 22 22 23 24 24 24 24
23 24 25 25 24 23 22 21 20 20 20 19 19 18 18 18 19 20 21 23 24 26 26 27 26 25 24 24 24 24 25 25 25 24 23 23 24 24 25 25 25 25
24 26 26 26 24 23 22 21 21 21 20 19 18 17 16 16 17 17 18 20 21 22 24 24 22 21 20 20 21 22 23 24 24 23 23 23 24 25 26 26 26 26
25 26 28 27 25 24 22 22 21 20 19 18 17 16 15 15 15 15 16 17 17 18 18 17 15 15 16 17 19 21 22 22 22 23 23 23 24 25 26 27 27 27
26 27 29 28 26 24 23 22 22 20 19 18 16 15 14 15 15 15 15 16 16 16 15 14 14 14 15 17 19 20 22 22 22 23 23 23 24 24 25 27 28 28
27 28 29 28 26 25 24 23 22 21 19 17 16 16 16 16 15 15 16 15 15 15 15 15 15 15 16 18 19 21 22 23 23 23 24 24 24 25 25 27 28 29
26 29 30 28 26 25 25 24 22 21 20 19 19 19 19 17 16 16 16 15 15 15 14 14 13 13 15 17 19 21 23 24 24 24 24 24 25 26 27 27 28 29
24 28 29 28 26 26 25 24 23 22 22 21 22 21 20 19 19 18 18 17 17 16 15 14 13 13 14 16 18 20 22 24 25 24 23 24 25 26 28 29 29 30
23 26 27 27 27 26 25 24 23 23 23 24 24 23 22 22 21 20 20 19 19 19 18 17 17 17 17 16 18 21 23 25 26 26 25 24 25 27 28 30 31 31
21 24 26 26 25 25 24 23 23 23 24 25 25 25 25 24 23 23 23 22 22 22 21 20 20 21 21 20 21 23 25 27 28 28 28 27 27 28 29 30 31 32
19 22 23 24 24 23 23 23 24 24 25 26 26 26 26 26 26 26 26 25 25 25 25 25 25 25 25 25 25 26 28 30 31 32 33 32 31 31 31 31 31 33
19 20 21 21 21 22 23 24 25 26 26 27 27 27 28 28 27 27 27 28 28 28 29 29 30 31 31 30 30 30 31 33 35 36 36 36 37 37 36 35 35 35
21 21 20 19 20 21 23 25 26 27 28 29 29 29 30 29 29 29 29 29 30 31 32 32 32 34 35 34 33 33 34 36 38 38 38 38 39 40 40 40 40 41
Wind_Direction
215 214 214 217 221 225 228 229 229 229 229 230 232 232 233 232 224 223 232 250 260 259 255 254 257 261 263 264 265 267 272 281 287 289 288 287 287 291 301 313 325 344
219 218 218 219 222 226 229 230 231 232 232 233 235 235 235 232 225 224 232 245 259 266 267 264 261 261 263 265 265 267 270 276 284 286 285 285 285 285 286 294 308 327
223 221 220 220 222 225 228 229 229 231 234 236 238 238 237 232 225 226 232 242 254 266 275 279 277 271 268 266 265 266 268 272 278 282 283 283 283 283 281 285 296 311
228 226 223 222 222 224 227 229 229 231 233 236 239 240 239 234 227 227 233 241 250 259 269 280 287 288 283 275 269 266 267 270 273 277 280 281 282 283 282 285 295 305
233 232 230 228 227 228 230 232 233 234 234 236 239 240 239 236 232 231 235 241 247 253 262 272 282 291 293 289 280 271 267 269 270 273 276 278 280 283 284 288 298 308
236 237 237 236 235 236 237 238 239 239 239 239 240 241 240 239 238 237 238 243 247 252 257 264 274 283 289 294 292 282 271 268 269 271 272 274 277 281 284 288 294 305
240 241 241 241 241 241 243 244 245 245 246 244 243 243 242 242 242 242 242 245 249 252 254 258 265 273 281 289 294 291 280 269 267 269 270 270 273 277 282 285 289 296
242 243 245 245 245 245 246 248 249 250 251 251 251 249 247 246 245 245 246 247 249 252 254 255 259 266 273 281 288 291 287 275 266 265 267 268 270 272 276 281 284 288
242 244 247 248 248 249 248 250 251 251 253 254 254 253 252 251 249 248 248 249 249 251 252 254 256 260 267 274 279 285 287 282 269 263 264 266 267 269 272 275 278 281
245 246 248 249 250 250 250 251 252 252 254 255 256 256 255 254 253 252 251 250 250 251 251 252 253 255 262 268 271 276 282 284 276 265 262 264 265 266 269 272 275 277
251 251 252 253 253 253 252 253 254 256 258 260 260 260 259 257 255 254 254 253 252 250 249 250 250 252 259 265 268 272 277 282 281 271 263 262 263 265 268 270 272 275
256 255 255 256 256 256 256 257 259 261 264 265 265 266 264 261 257 254 253 252 252 252 250 250 251 252 257 264 267 270 274 280 281 276 266 261 261 264 266 269 271 274
255 255 254 254 255 255 257 260 264 267 268 267 267 268 268 265 260 255 252 251 251 253 253 253 254 256 259 264 268 269 273 277 279 276 269 262 260 261 264 267 270 272
251 252 251 251 252 254 257 261 265 267 267 267 268 268 267 263 258 253 251 250 250 252 255 257 258 261 263 266 268 270 271 274 275 273 267 262 260 259 261 264 267 270
248 248 249 251 251 253 257 260 262 263 264 267 267 266 263 258 252 249 248 249 250 252 255 257 259 262 264 264 265 266 267 268 269 267 262 260 260 259 260 263 266 269
245 246 247 250 251 252 254 255 257 260 264 266 266 263 259 253 249 246 245 245 246 248 251 254 256 257 257 256 256 258 260 261 262 261 259 258 259 260 261 263 265 268
242 242 245 248 249 249 250 252 254 258 262 263 263 259 251 244 242 241 239 239 241 243 246 248 247 244 244 247 249 252 256 258 258 259 259 258 259 261 262 264 265 267
237 237 242 245 247 246 247 248 251 256 259 260 258 250 240 236 235 234 234 236 239 241 243 243 240 237 239 244 249 252 256 259 260 261 262 262 262 261 262 264 266 268
239 237 239 243 244 243 244 246 249 254 255 253 247 240 236 233 231 229 231 235 237 240 243 244 243 242 244 248 252 257 260 263 265 266 267 268 268 267 266 266 267 269
244 240 240 242 242 240 241 244 248 250 249 246 244 242 239 236 231 227 227 230 233 236 239 244 248 248 251 254 258 261 264 267 269 270 272 273 275 275 274 272 271 271
247 245 243 241 239 237 240 244 247 249 248 246 244 242 241 238 234 230 229 230 234 236 238 242 246 247 249 255 262 265 267 269 270 271 274 276 277 279 279 279 277 275
248 247 244 242 239 238 240 245 249 251 249 246 244 242 241 241 239 238 237 237 239 242 243 242 242 245 246 249 257 264 267 268 270 272 273 274 275 277 278 280 281 281
248 247 246 245 244 242 244 248 250 250 248 248 247 246 246 246 245 245 246 246 248 251 252 250 247 247 248 247 252 259 265 268 269 271 273 273 273 274 275 278 281 282
251 249 248 249 249 248 248 249 248 248 248 250 251 252 253 253 252 253 253 255 256 256 258 259 257 255 253 252 252 254 259 264 268 271 274 275 275 274 273 275 276 278
253 250 248 248 249 250 249 248 248 249 251 253 256 258 259 259 259 259 258 257 257 257 257 258 260 260 260 260 260 259 260 264 268 272 275 277 277 276 276 276 274 274
253 254 252 251 250 248 248 249 251 254 258 261 263 264 265 264 264 264 262 261 260 260 261 261 262 264 265 267 270 272 274 274 276 278 280 280 279 278 279 279 277 276
Height
5919 5921 5922 5923 5924 5925 5926 5927 5928 5928 5929 5930 5931 5932 5933 5934 5935 5935 5936 5936 5936 5936 5937 5937 5937 5938 5938 5938 5939 5939 5939 5939 5939 5939 5939 5940 5940 5940 5939 5939 5938 5937
5918 5920 5921 5922 5923 5924 5925 5926 5927 5928 5929 5929 5930 5931 5932 5933 5934 5935 5935 5935 5935 5936 5936 5936 5936 5937 5937 5937 5937 5938 5938 5938 5939 5939 5939 5939 5939 5939 5939 5938 5938 5937
5918 5919 5920 5921 5922 5922 5923 5925 5926 5927 5928 5929 5930 5931 5931 5932 5933 5934 5934 5934 5935 5935 5935 5935 5936 5936 5936 5936 5936 5936 5937 5937 5937 5938 5938 5938 5939 5939 5938 5938 5937 5936
5917 5918 5919 5920 5920 5921 5922 5924 5925 5926 5927 5928 5929 5930 5931 5932 5932 5933 5933 5933 5934 5934 5934 5934 5935 5935 5935 5935 5935 5935 5935 5936 5936 5936 5937 5937 5937 5938 5937 5937 5936 5935
5916 5917 5918 5919 5920 5921 5922 5923 5924 5925 5926 5927 5928 5929 5930 5930 5931 5932 5932 5932 5933 5933 5933 5933 5933 5934 5934 5934 5934 5934 5934 5934 5934 5935 5935 5936 5936 5936 5936 5936 5935 5934
5915 5916 5917 5918 5919 5920 5921 5922 5922 5923 5925 5926 5927 5928 5929 5929 5930 5931 5931 5931 5931 5932 5932 5932 5932 5932 5933 5933 5933 5933 5933 5933 5933 5933 5934 5934 5934 5934 5935 5934 5934 5933
5914 5915 5916 5917 5918 5919 5919 5920 5921 5922 5923 5924 5926 5927 5927 5928 5928 5929 5929 5930 5930 5930 5930 5931 5931 5931 5931 5931 5931 5931 5931 5931 5931 5932 5932 5932 5932 5933 5933 5933 5933 5933
5912 5913 5914 5915 5916 5917 5918 5918 5919 5920 5921 5922 5924 5925 5925 5926 5926 5927 5927 5928 5928 5928 5929 5929 5929 5929 5929 5929 5929 5929 5929 5930 5930 5930 5930 5930 5931 5931 5931 5932 5932 5931
5911 5912 5912 5913 5914 5915 5916 5917 5917 5918 5919 5921 5922 5922 5923 5924 5924 5925 5925 5925 5926 5926 5926 5927 5927 5927 5927 5928 5928 5928 5928 5928 5928 5928 5928 5929 5929 5929 5930 5930 5930 5930
5909 5910 5910 5911 5912 5913 5914 5914 5915 5916 5917 5918 5919 5920 5921 5922 5922 5922 5922 5922 5923 5923 5924 5924 5925 5925 5925 5926 5926 5926 5926 5926 5926 5926 5926 5927 5927 5927 5928 5928 5928 5928
5908 5908 5909 5910 5910 5911 5911 5912 5913 5914 5915 5916 5916 5917 5918 5919 5919 5919 5920 5920 5920 5920 5921 5921 5922 5923 5923 5923 5923 5923 5923 5924 5924 5924 5924 5925 5925 5925 5926 5926 5926 5927
5906 5907 5908 5908 5908 5909 5909 5910 5911 5912 5913 5913 5914 5914 5915 5916 5916 5916 5917 5917 5917 5917 5918 5918 5919 5920 5921 5921 5921 5921 5921 5921 5921 5922 5922 5922 5923 5923 5924 5924 5924 5924
5903 5904 5905 5906 5906 5907 5907 5908 5909 5910 5910 5911 5911 5911 5912 5912 5913 5913 5914 5914 5914 5914 5915 5916 5916 5917 5918 5919 5919 5919 5919 5919 5919 5919 5920 5920 5920 5921 5921 5921 5922 5922
5901 5901 5902 5903 5903 5904 5905 5906 5907 5907 5908 5908 5908 5909 5909 5909 5910 5910 5911 5911 5912 5912 5913 5913 5914 5915 5916 5917 5917 5917 5917 5917 5916 5917 5917 5917 5918 5918 5918 5919 5919 5919
5897 5897 5898 5899 5900 5902 5903 5904 5904 5904 5905 5905 5906 5906 5906 5906 5907 5907 5908 5908 5909 5910 5910 5911 5912 5913 5914 5914 5914 5914 5914 5914 5914 5914 5914 5914 5915 5915 5915 5916 5916 5917
5894 5894 5895 5896 5898 5899 5900 5901 5901 5902 5902 5903 5903 5903 5904 5904 5904 5904 5905 5906 5906 5907 5907 5908 5909 5910 5911 5911 5911 5911 5911 5911 5911 5911 5911 5911 5912 5912 5912 5913 5913 5914
5891 5892 5892 5893 5895 5896 5897 5898 5899 5899 5900 5900 5901 5901 5901 5901 5902 5902 5903 5903 5904 5904 5905 5906 5907 5908 5908 5908 5908 5908 5908 5908 5908 5908 5908 5908 5909 5909 5909 5910 5910 5910
5889 5889 5890 5891 5893 5894 5895 5896 5896 5897 5898 5898 5899 5899 5899 5900 5900 5901 5901 5902 5902 5903 5903 5904 5905 5906 5906 5906 5906 5906 5906 5905 5906 5906 5905 5906 5906 5906 5907 5907 5907 5907
5887 5887 5888 5889 5891 5892 5893 5893 5894 5895 5896 5897 5897 5897 5897 5898 5899 5899 5900 5900 5901 5901 5902 5902 5903 5904 5904 5904 5904 5904 5903 5903 5904 5904 5904 5904 5904 5904 5904 5904 5904 5904
5885 5885 5886 5887 5888 5889 5890 5891 5892 5893 5894 5895 5895 5895 5896 5897 5897 5898 5898 5899 5899 5900 5900 5901 5902 5902 5903 5903 5902 5902 5902 5901 5901 5902 5902 5902 5902 5902 5901 5901 5901 5901
5882 5883 5883 5884 5886 5887 5888 5889 5891 5892 5892 5893 5893 5894 5895 5895 5896 5896 5897 5897 5898 5898 5899 5900 5900 5901 5901 5901 5901 5900 5900 5899 5899 5899 5900 5900 5900 5899 5899 5898 5898 5898
5880 5880 5881 5882 5883 5885 5886 5887 5888 5889 5890 5891 5891 5892 5893 5893 5894 5894 5895 5895 5896 5896 5897 5898 5898 5898 5899 5899 5899 5898 5897 5896 5896 5896 5897 5897 5897 5897 5896 5896 5895 5895
5877 5878 5879 5880 5882 5883 5884 5885 5886 5886 5887 5887 5888 5889 5890 5891 5892 5892 5892 5893 5893 5894 5895 5895 5896 5896 5896 5896 5896 5896 5894 5893 5893 5893 5893 5894 5894 5893 5893 5893 5893 5892
5874 5875 5877 5878 5880 5881 5882 5883 5883 5883 5884 5885 5885 5886 5887 5888 5889 5890 5890 5891 5891 5892 5892 5892 5893 5892 5893 5893 5893 5893 5892 5890 5890 5889 5889 5890 5890 5889 5890 5890 5890 5889
5872 5873 5875 5876 5878 5879 5880 5880 5880 5881 5881 5882 5883 5884 5884 5885 5886 5887 5888 5888 5888 5889 5889 5889 5889 5889 5889 5889 5890 5889 5889 5888 5886 5885 5886 5886 5885 5885 5886 5886 5886 5885
5869 5871 5872 5874 5875 5876 5877 5877 5878 5878 5879 5879 5880 5881 5881 5882 5883 5884 5885 5885 5885 5885 5886 5886 5886 5885 5885 5886 5886 5886 5885 5884 5883 5882 5882 5883 5882 5881 5881 5881 5881 5880